﻿測定場所 (Monitoring sites),日付 (Measurement date),時間 (Measurement time),線量率 最大値 (max) μGy/h,線量率 最小値 (min) μGy/h,線量率 平均値 (average) μGy/h,
足立 (Adachi),2012-08-26,23:01～24:00,0.0694,0.0627,0.0663,
足立 (Adachi),2012-08-26,22:01～23:00,0.0690,0.0627,0.0660,
足立 (Adachi),2012-08-26,21:01～22:00,0.0692,0.0631,0.0662,
足立 (Adachi),2012-08-26,20:01～21:00,0.0703,0.0613,0.0662,
足立 (Adachi),2012-08-26,19:01～20:00,0.0699,0.0634,0.0664,
足立 (Adachi),2012-08-26,18:01～19:00,0.0709,0.0626,0.0666,
足立 (Adachi),2012-08-26,17:01～18:00,0.0701,0.0624,0.0663,
足立 (Adachi),2012-08-26,16:01～17:00,0.0699,0.0631,0.0667,
足立 (Adachi),2012-08-26,15:01～16:00,0.0719,0.0629,0.0672,
足立 (Adachi),2012-08-26,14:01～15:00,0.0710,0.0638,0.0667,
足立 (Adachi),2012-08-26,13:01～14:00,0.0709,0.0628,0.0662,
足立 (Adachi),2012-08-26,12:01～13:00,0.0709,0.0634,0.0665,
足立 (Adachi),2012-08-26,11:01～12:00,0.0696,0.0623,0.0661,
足立 (Adachi),2012-08-26,10:01～11:00,0.0697,0.0630,0.0661,
足立 (Adachi),2012-08-26,09:01～10:00,0.0696,0.0618,0.0661,
足立 (Adachi),2012-08-26,08:01～09:00,0.0692,0.0625,0.0661,
足立 (Adachi),2012-08-26,07:01～08:00,0.0700,0.0629,0.0661,
足立 (Adachi),2012-08-26,06:01～07:00,0.0717,0.0619,0.0652,
足立 (Adachi),2012-08-26,05:01～06:00,0.0682,0.0618,0.0655,
足立 (Adachi),2012-08-26,04:01～05:00,0.0693,0.0619,0.0653,
足立 (Adachi),2012-08-26,03:01～04:00,0.0710,0.0622,0.0656,
足立 (Adachi),2012-08-26,02:01～03:00,0.0694,0.0626,0.0664,
足立 (Adachi),2012-08-26,01:01～02:00,0.0705,0.0627,0.0664,
足立 (Adachi),2012-08-26,00:01～01:00,0.0697,0.0627,0.0662,
足立 (Adachi),2012-08-25,23:01～24:00,0.0701,0.0619,0.0662,
足立 (Adachi),2012-08-25,22:01～23:00,0.0704,0.0631,0.0663,
足立 (Adachi),2012-08-25,21:01～22:00,0.0705,0.0630,0.0664,
足立 (Adachi),2012-08-25,20:01～21:00,0.0701,0.0633,0.0662,
足立 (Adachi),2012-08-25,19:01～20:00,0.0705,0.0626,0.0662,
足立 (Adachi),2012-08-25,18:01～19:00,0.0689,0.0623,0.0656,
足立 (Adachi),2012-08-25,17:01～18:00,0.0699,0.0626,0.0664,
足立 (Adachi),2012-08-25,16:01～17:00,0.0703,0.0617,0.0663,
足立 (Adachi),2012-08-25,15:01～16:00,0.0685,0.0619,0.0657,
足立 (Adachi),2012-08-25,14:01～15:00,0.0692,0.0610,0.0660,
足立 (Adachi),2012-08-25,13:01～14:00,0.0702,0.0612,0.0657,
足立 (Adachi),2012-08-25,12:01～13:00,0.0680,0.0616,0.0654,
足立 (Adachi),2012-08-25,11:01～12:00,0.0679,0.0621,0.0654,
足立 (Adachi),2012-08-25,10:01～11:00,0.0687,0.0613,0.0654,
足立 (Adachi),2012-08-25,09:01～10:00,0.0695,0.0619,0.0654,
足立 (Adachi),2012-08-25,08:01～09:00,0.0688,0.0618,0.0656,
足立 (Adachi),2012-08-25,07:01～08:00,0.0680,0.0620,0.0645,
足立 (Adachi),2012-08-25,06:01～07:00,0.0677,0.0597,0.0645,
足立 (Adachi),2012-08-25,05:01～06:00,0.0700,0.0621,0.0653,
足立 (Adachi),2012-08-25,04:01～05:00,0.0712,0.0621,0.0656,
足立 (Adachi),2012-08-25,03:01～04:00,0.0694,0.0627,0.0656,
足立 (Adachi),2012-08-25,02:01～03:00,0.0720,0.0606,0.0655,
足立 (Adachi),2012-08-25,01:01～02:00,0.0697,0.0619,0.0656,
足立 (Adachi),2012-08-25,00:01～01:00,0.0695,0.0623,0.0657,
足立 (Adachi),2012-08-24,23:01～24:00,0.0700,0.0621,0.0660,
足立 (Adachi),2012-08-24,22:01～23:00,0.0701,0.0619,0.0656,
足立 (Adachi),2012-08-24,21:01～22:00,0.0694,0.0625,0.0661,
足立 (Adachi),2012-08-24,20:01～21:00,0.0696,0.0617,0.0657,
足立 (Adachi),2012-08-24,19:01～20:00,0.0691,0.0619,0.0658,
足立 (Adachi),2012-08-24,18:01～19:00,0.0693,0.0610,0.0654,
足立 (Adachi),2012-08-24,17:01～18:00,0.0688,0.0614,0.0654,
足立 (Adachi),2012-08-24,16:01～17:00,0.0698,0.0628,0.0660,
足立 (Adachi),2012-08-24,15:01～16:00,0.0692,0.0619,0.0660,
足立 (Adachi),2012-08-24,14:01～15:00,0.0696,0.0623,0.0657,
足立 (Adachi),2012-08-24,13:01～14:00,0.0695,0.0623,0.0656,
足立 (Adachi),2012-08-24,12:01～13:00,0.0675,0.0615,0.0652,
足立 (Adachi),2012-08-24,11:01～12:00,0.0697,0.0599,0.0650,
足立 (Adachi),2012-08-24,10:01～11:00,0.0688,0.0621,0.0655,
足立 (Adachi),2012-08-24,09:01～10:00,0.0692,0.0616,0.0652,
足立 (Adachi),2012-08-24,08:01～09:00,0.0697,0.0604,0.0652,
足立 (Adachi),2012-08-24,07:01～08:00,0.0695,0.0610,0.0651,
足立 (Adachi),2012-08-24,06:01～07:00,0.0689,0.0590,0.0641,
足立 (Adachi),2012-08-24,05:01～06:00,0.0673,0.0611,0.0644,
足立 (Adachi),2012-08-24,04:01～05:00,0.0689,0.0598,0.0649,
足立 (Adachi),2012-08-24,03:01～04:00,0.0679,0.0602,0.0649,
足立 (Adachi),2012-08-24,02:01～03:00,0.0694,0.0615,0.0650,
足立 (Adachi),2012-08-24,01:01～02:00,0.0686,0.0608,0.0657,
足立 (Adachi),2012-08-24,00:01～01:00,0.0698,0.0614,0.0655,
足立 (Adachi),2012-08-23,23:01～24:00,0.0698,0.0633,0.0664,
足立 (Adachi),2012-08-23,22:01～23:00,0.0686,0.0618,0.0653,
足立 (Adachi),2012-08-23,21:01～22:00,0.0695,0.0615,0.0653,
足立 (Adachi),2012-08-23,20:01～21:00,0.0682,0.0620,0.0653,
足立 (Adachi),2012-08-23,19:01～20:00,0.0671,0.0613,0.0645,
足立 (Adachi),2012-08-23,18:01～19:00,0.0692,0.0621,0.0654,
足立 (Adachi),2012-08-23,17:01～18:00,0.0700,0.0604,0.0653,
足立 (Adachi),2012-08-23,16:01～17:00,0.0693,0.0615,0.0650,
足立 (Adachi),2012-08-23,15:01～16:00,0.0693,0.0615,0.0659,
足立 (Adachi),2012-08-23,14:01～15:00,0.0681,0.0620,0.0653,
足立 (Adachi),2012-08-23,13:01～14:00,0.0690,0.0609,0.0648,
足立 (Adachi),2012-08-23,12:01～13:00,0.0682,0.0616,0.0649,
足立 (Adachi),2012-08-23,11:01～12:00,0.0688,0.0619,0.0649,
足立 (Adachi),2012-08-23,10:01～11:00,0.0706,0.0618,0.0655,
足立 (Adachi),2012-08-23,09:01～10:00,0.0685,0.0616,0.0649,
足立 (Adachi),2012-08-23,08:01～09:00,0.0673,0.0612,0.0649,
足立 (Adachi),2012-08-23,07:01～08:00,0.0689,0.0616,0.0649,
足立 (Adachi),2012-08-23,06:01～07:00,0.0685,0.0607,0.0639,
足立 (Adachi),2012-08-23,05:01～06:00,0.0685,0.0612,0.0650,
足立 (Adachi),2012-08-23,04:01～05:00,0.0685,0.0609,0.0645,
足立 (Adachi),2012-08-23,03:01～04:00,0.0710,0.0614,0.0650,
足立 (Adachi),2012-08-23,02:01～03:00,0.0686,0.0618,0.0652,
足立 (Adachi),2012-08-23,01:01～02:00,0.0685,0.0621,0.0651,
足立 (Adachi),2012-08-23,00:01～01:00,0.0690,0.0623,0.0651,
足立 (Adachi),2012-08-22,23:01～24:00,0.0696,0.0616,0.0657,
足立 (Adachi),2012-08-22,22:01～23:00,0.0699,0.0621,0.0656,
足立 (Adachi),2012-08-22,21:01～22:00,0.0695,0.0626,0.0661,
足立 (Adachi),2012-08-22,20:01～21:00,0.0700,0.0622,0.0658,
足立 (Adachi),2012-08-22,19:01～20:00,0.0688,0.0624,0.0654,
足立 (Adachi),2012-08-22,18:01～19:00,0.0688,0.0622,0.0656,
足立 (Adachi),2012-08-22,17:01～18:00,0.0692,0.0632,0.0656,
足立 (Adachi),2012-08-22,16:01～17:00,0.0695,0.0610,0.0652,
足立 (Adachi),2012-08-22,15:01～16:00,0.0702,0.0631,0.0659,
足立 (Adachi),2012-08-22,14:01～15:00,0.0686,0.0623,0.0653,
足立 (Adachi),2012-08-22,13:01～14:00,0.0696,0.0616,0.0650,
足立 (Adachi),2012-08-22,12:01～13:00,0.0690,0.0623,0.0654,
足立 (Adachi),2012-08-22,11:01～12:00,0.0686,0.0616,0.0651,
足立 (Adachi),2012-08-22,10:01～11:00,0.0693,0.0611,0.0656,
足立 (Adachi),2012-08-22,09:01～10:00,0.0698,0.0607,0.0653,
足立 (Adachi),2012-08-22,08:01～09:00,0.0691,0.0603,0.0646,
足立 (Adachi),2012-08-22,07:01～08:00,0.0678,0.0617,0.0647,
足立 (Adachi),2012-08-22,06:01～07:00,0.0668,0.0594,0.0631,
足立 (Adachi),2012-08-22,05:01～06:00,0.0680,0.0609,0.0640,
足立 (Adachi),2012-08-22,04:01～05:00,0.0678,0.0604,0.0643,
足立 (Adachi),2012-08-22,03:01～04:00,0.0677,0.0618,0.0647,
足立 (Adachi),2012-08-22,02:01～03:00,0.0697,0.0605,0.0646,
足立 (Adachi),2012-08-22,01:01～02:00,0.0693,0.0620,0.0651,
足立 (Adachi),2012-08-22,00:01～01:00,0.0722,0.0620,0.0661,
足立 (Adachi),2012-08-21,23:01～24:00,0.0694,0.0622,0.0655,
足立 (Adachi),2012-08-21,22:01～23:00,0.0679,0.0619,0.0655,
足立 (Adachi),2012-08-21,21:01～22:00,0.0833,0.0619,0.0660,
足立 (Adachi),2012-08-21,20:01～21:00,0.0704,0.0616,0.0655,
足立 (Adachi),2012-08-21,19:01～20:00,0.0693,0.0616,0.0657,
足立 (Adachi),2012-08-21,18:01～19:00,0.0688,0.0610,0.0653,
足立 (Adachi),2012-08-21,17:01～18:00,0.0681,0.0619,0.0649,
足立 (Adachi),2012-08-21,16:01～17:00,0.0693,0.0608,0.0650,
足立 (Adachi),2012-08-21,15:01～16:00,0.0698,0.0608,0.0645,
足立 (Adachi),2012-08-21,14:01～15:00,0.0691,0.0613,0.0652,
足立 (Adachi),2012-08-21,13:01～14:00,0.0681,0.0607,0.0647,
足立 (Adachi),2012-08-21,12:01～13:00,0.0683,0.0618,0.0650,
足立 (Adachi),2012-08-21,11:01～12:00,0.0684,0.0610,0.0647,
足立 (Adachi),2012-08-21,10:01～11:00,0.0680,0.0612,0.0652,
足立 (Adachi),2012-08-21,09:01～10:00,0.0698,0.0619,0.0651,
足立 (Adachi),2012-08-21,08:01～09:00,0.0689,0.0608,0.0644,
足立 (Adachi),2012-08-21,07:01～08:00,0.0678,0.0594,0.0643,
足立 (Adachi),2012-08-21,06:01～07:00,0.0678,0.0582,0.0636,
足立 (Adachi),2012-08-21,05:01～06:00,0.0695,0.0616,0.0644,
足立 (Adachi),2012-08-21,04:01～05:00,0.0692,0.0608,0.0652,
足立 (Adachi),2012-08-21,03:01～04:00,0.0687,0.0622,0.0650,
足立 (Adachi),2012-08-21,02:01～03:00,0.0690,0.0617,0.0654,
足立 (Adachi),2012-08-21,01:01～02:00,0.0697,0.0615,0.0655,
足立 (Adachi),2012-08-21,00:01～01:00,0.0693,0.0609,0.0658,
足立 (Adachi),2012-08-20,23:01～24:00,0.0696,0.0615,0.0653,
足立 (Adachi),2012-08-20,22:01～23:00,0.0691,0.0611,0.0653,
足立 (Adachi),2012-08-20,21:01～22:00,0.0694,0.0588,0.0647,
足立 (Adachi),2012-08-20,20:01～21:00,0.0679,0.0607,0.0650,
足立 (Adachi),2012-08-20,19:01～20:00,0.0696,0.0610,0.0650,
足立 (Adachi),2012-08-20,18:01～19:00,0.0687,0.0616,0.0649,
足立 (Adachi),2012-08-20,17:01～18:00,0.0691,0.0608,0.0651,
足立 (Adachi),2012-08-20,16:01～17:00,0.0687,0.0612,0.0651,
足立 (Adachi),2012-08-20,15:01～16:00,0.0682,0.0591,0.0646,
足立 (Adachi),2012-08-20,14:01～15:00,0.0682,0.0600,0.0646,
足立 (Adachi),2012-08-20,13:01～14:00,0.0694,0.0608,0.0649,
足立 (Adachi),2012-08-20,12:01～13:00,0.0683,0.0621,0.0655,
足立 (Adachi),2012-08-20,11:01～12:00,0.0688,0.0614,0.0645,
足立 (Adachi),2012-08-20,10:01～11:00,0.0677,0.0624,0.0644,
足立 (Adachi),2012-08-20,09:01～10:00,0.0687,0.0615,0.0648,
足立 (Adachi),2012-08-20,08:01～09:00,0.0672,0.0595,0.0640,
足立 (Adachi),2012-08-20,07:01～08:00,0.0665,0.0598,0.0639,
足立 (Adachi),2012-08-20,06:01～07:00,0.0677,0.0605,0.0634,
足立 (Adachi),2012-08-20,05:01～06:00,0.0690,0.0611,0.0645,
足立 (Adachi),2012-08-20,04:01～05:00,0.0684,0.0615,0.0646,
足立 (Adachi),2012-08-20,03:01～04:00,0.0690,0.0609,0.0646,
足立 (Adachi),2012-08-20,02:01～03:00,0.0689,0.0608,0.0649,
足立 (Adachi),2012-08-20,01:01～02:00,0.0685,0.0599,0.0648,
足立 (Adachi),2012-08-20,00:01～01:00,0.0685,0.0608,0.0647,
